Regional Weather Roundup
Issued by NWS

Home | Current Version | Previous Version | Text Only | Print | Product List | Glossary On
Versions: 1 2 3 4 5 6 7 8 9 10 11 12 13 14 15 16 17 18 19 20 21 22 23 24 25 26 27 28 29 30 31 32 33 34 35 36 37 38 39 40 41 42 43 44 45 46 47 48 49 50
000
ASUS45 KREV 222210
RWRNV
NEVADA REGIONAL WEATHER ROUNDUP
NATIONAL WEATHER SERVICE RENO NV
300 PM PDT MON SEP 22 2014

NOTE: "FAIR" INDICATES FEW OR NO CLOUDS BELOW 12,000 FEET WITH NO
SIGNIFICANT WEATHER AND/OR OBSTRUCTIONS TO VISIBILITY.

NVZ001-003-004-222300-
WESTERN NEVADA

CITY           SKY/WX    TMP DP  RH WIND       PRES   REMARKS
RENO           MOSUNNY   83  42  23 VRB6      30.07F
CARSON CITY    FAIR      82  37  20 S5        30.10F
MINDEN         FAIR      81  41  24 N7        30.11F
SLIDE MTN        N/A     59  41  51 W9          N/A
FALLON         SUNNY     85  38  18 S7        30.05F
LOVELOCK       SUNNY     83  48  29 SW7       30.06F
HAWTHORNE      SUNNY     84  41  21 W6        30.06F
$$

NVZ002-CAZ072-073-222300-
NORTHERN AND CENTRAL SIERRA

CITY           SKY/WX    TMP DP  RH WIND       PRES   REMARKS
S. LAKE TAHOE  SUNNY     76  42  29 VRB7      30.20F
TRUCKEE        PTSUNNY   73  43  33 W7        30.19F SMOKE
SQUAW VLY 8000 NOT AVBL
SUSANVILLE     SUNNY     82  43  24 W12       30.05F
BLUE CANYON    CLOUDY    71  40  32 SW7       30.20F HAZE
MAMMOTH LAKES  FAIR      75  34  22 E9G18     30.25F
BRIDGEPORT     FAIR      78  26  14 SW10G20   30.20F
$$

NVZ030-031-036-222300-
NORTHERN NEVADA

CITY           SKY/WX    TMP DP  RH WIND       PRES   REMARKS
ELKO           MOSUNNY   78  43  28 W17G23    30.12F
WINNEMUCCA     SUNNY     82  43  25 MISG      30.08F
WENDOVER       CLOUDY    70  52  52 E7        30.11F
$$

NVZ035-037-222300-
CENTRAL NEVADA

CITY           SKY/WX    TMP DP  RH WIND       PRES   REMARKS
ELY            CLOUDY    74  45  35 S18       30.21F
EUREKA           N/A     75  43  31 VRB7      30.19F
$$

NVZ013-014-222300-
SOUTH CENTRAL NEVADA

CITY           SKY/WX    TMP DP  RH WIND       PRES   REMARKS
TONOPAH        SUNNY     78  39  24 VRB3      30.17F
$$

NVZ017-020-022-222300-
SOUTHERN NEVADA

CITY           SKY/WX    TMP DP  RH WIND       PRES   REMARKS
LAS VEGAS      MOSUNNY   94  42  16 E9        29.93F
N. LAS VEGAS   SUNNY     93  40  15 S10       29.95F
NELLIS AFB     SUNNY     94  44  17 S6        29.94F
HENDERSON      SUNNY     94  43  17 NE7       29.99F
MERCURY        SUNNY     89  40  17 VRB6      30.02F
$$


USA.gov is the U.S. government's official web portal to all federal, state and local government web resources and services.